WINNIPESAUKEE R @ TILTON: From 07/08/2018 10:00 to 07/22/2018 13:00

Date STAGE [FT] FLOW [CFS] AIR TEMPERATURE [DEGF]
07/22/2018 09:00 2.49 260.0 63.4
07/22/2018 08:00 2.49 260.0 62.6
07/22/2018 07:00 2.49 260.0 60.9
07/22/2018 06:00 2.49 260.0 59.2
07/22/2018 05:00 2.49 260.0 58.5
07/22/2018 04:00 2.49 260.0 57.9
07/22/2018 03:00 2.48 257.0 57.4
07/22/2018 02:00 2.49 260.0 57.6
07/22/2018 01:00 2.49 260.0 57.7
07/22/2018 00:00 2.49 260.0 58.4
07/21/2018 23:00 2.48 257.0 62.4
07/21/2018 22:00 2.48 257.0 64.8
07/21/2018 21:00 2.48 257.0 68.6
07/21/2018 20:00 2.49 260.0 72.0
07/21/2018 19:00 2.49 260.0 74.9
07/21/2018 18:00 2.49 260.0 76.1
07/21/2018 17:00 2.49 260.0 76.5
07/21/2018 16:00 2.50 263.0 76.5
07/21/2018 15:00 2.50 263.0 76.3
07/21/2018 14:00 2.51 266.0 75.2
07/21/2018 13:00 2.51 266.0 74.3
07/21/2018 12:00 2.51 266.0 71.6
07/21/2018 11:00 2.52 269.0 69.0
07/21/2018 10:00 2.51 266.0 67.5
07/21/2018 09:00 2.51 266.0 66.8
07/21/2018 08:00 2.51 266.0 58.9
07/21/2018 07:00 2.51 266.0 54.1
07/21/2018 06:00 2.51 266.0 54.1
07/21/2018 05:00 2.51 266.0 55.4
07/21/2018 04:00 2.50 263.0 56.2
07/21/2018 03:00 2.50 263.0 57.6
07/21/2018 02:00 2.50 263.0 59.7
07/21/2018 01:00 2.51 266.0 63.3
07/21/2018 00:00 2.51 266.0 65.8
07/20/2018 23:00 2.50 263.0 68.1
07/20/2018 22:00 2.50 263.0 70.9
07/20/2018 21:00 2.50 263.0 74.9
07/20/2018 20:00 2.49 260.0 78.0
07/20/2018 19:00 2.45 248.0 81.2
07/20/2018 18:00 2.46 251.0 82.5
07/20/2018 17:00 2.45 248.0 82.7
07/20/2018 16:00 2.45 248.0 82.2
07/20/2018 15:00 2.44 245.0 81.6
07/20/2018 14:00 2.43 242.0 81.5
07/20/2018 13:00 2.43 242.0 81.9
07/20/2018 12:00 2.42 239.0 79.3
07/20/2018 11:00 2.42 239.0 76.5
07/20/2018 10:00 2.41 236.0 70.9
07/20/2018 09:00 2.41 236.0 65.4
07/20/2018 08:00 2.41 236.0 58.3
07/20/2018 07:00 2.41 236.0 52.2
07/20/2018 06:00 2.42 239.0 52.8
07/20/2018 05:00 2.42 239.0 53.7
07/20/2018 04:00 2.42 239.0 54.3
07/20/2018 03:00 2.42 239.0 55.6
07/20/2018 02:00 2.42 239.0 56.6
07/20/2018 01:00 2.42 239.0 58.4
07/20/2018 00:00 2.42 239.0 60.2
07/19/2018 23:00 2.42 239.0 63.0
07/19/2018 22:00 2.42 239.0 66.7
07/19/2018 21:00 2.42 239.0 72.6
07/19/2018 20:00 2.42 239.0 78.5
07/19/2018 19:00 2.42 239.0 79.0
07/19/2018 18:00 2.42 239.0 80.2
07/19/2018 17:00 2.43 242.0 79.6
07/19/2018 16:00 2.44 245.0 78.7
07/19/2018 15:00 2.44 245.0 77.4
07/19/2018 14:00 2.44 245.0 76.5
07/19/2018 13:00 2.45 248.0 75.0
07/19/2018 12:00 2.45 248.0 75.0
07/19/2018 11:00 2.44 245.0 69.5
07/19/2018 10:00 2.45 248.0 66.5
07/19/2018 09:00 2.45 248.0 62.8
07/19/2018 08:00 2.46 251.0 53.4
07/19/2018 07:00 2.46 251.0 48.2
07/19/2018 06:00 2.46 251.0 48.7
07/19/2018 05:00 2.46 251.0 49.8
07/19/2018 04:00 2.47 254.0 50.8
07/19/2018 03:00 2.47 254.0 51.6
07/19/2018 02:00 2.47 254.0 53.4
07/19/2018 01:00 2.46 251.0 54.6
07/19/2018 00:00 2.46 251.0 57.4
07/18/2018 23:00 2.47 254.0 59.7
07/18/2018 22:00 2.47 254.0 64.2
07/18/2018 21:00 2.47 254.0 71.7
07/18/2018 20:00 2.48 257.0 74.3
07/18/2018 19:00 2.49 260.0 75.6
07/18/2018 18:00 2.50 263.0 76.1
07/18/2018 17:00 2.50 263.0 76.1
07/18/2018 16:00 2.51 266.0 76.0
07/18/2018 15:00 2.52 269.0 74.8
07/18/2018 14:00 2.52 269.0 73.6
07/18/2018 13:00 2.54 275.0 73.4
07/18/2018 12:00 2.54 275.0 72.7
07/18/2018 11:00 2.55 279.0 70.0
07/18/2018 10:00 2.55 279.0 68.1
07/18/2018 09:00 2.56 282.0 67.0
07/18/2018 08:00 2.56 282.0 63.4
07/18/2018 07:00 2.56 282.0 61.7
07/18/2018 06:00 2.56 282.0 63.2
07/18/2018 05:00 2.56 282.0 64.8
07/18/2018 04:00 2.57 285.0 67.0
07/18/2018 03:00 2.57 285.0 67.6
07/18/2018 02:00 2.58 288.0 68.6
07/18/2018 01:00 2.56 282.0 69.0
07/18/2018 00:00 2.56 282.0 69.2
07/17/2018 23:00 2.57 285.0 69.5
07/17/2018 22:00 2.57 285.0 69.7
07/17/2018 21:00 2.58 288.0 69.7
07/17/2018 20:00 2.59 291.0 70.2
07/17/2018 19:00 2.52 269.0 70.4
07/17/2018 18:00 2.53 272.0 70.1
07/17/2018 17:00 2.53 272.0 70.2
07/17/2018 16:00 2.54 275.0 70.4
07/17/2018 15:00 2.55 279.0 70.4
07/17/2018 14:00 2.53 272.0 71.9
07/17/2018 13:00 2.53 272.0 73.6
07/17/2018 12:00 2.49 260.0 75.7
07/17/2018 11:00 2.49 260.0 76.5
07/17/2018 10:00 2.55 279.0 75.0
07/17/2018 09:00 2.53 272.0 75.2
07/17/2018 08:00 2.53 272.0 75.3
07/17/2018 07:00 2.49 260.0 75.5
07/17/2018 06:00 2.49 260.0 75.6
07/17/2018 05:00 2.50 263.0 75.8
07/17/2018 04:00 2.50 263.0 75.9
07/17/2018 03:00 2.50 263.0 76.1
07/17/2018 02:00 2.50 263.0 76.2
07/17/2018 01:00 2.50 263.0 76.4
07/17/2018 00:00 2.50 263.0 76.5
07/16/2018 23:00 2.50 263.0 76.7
07/16/2018 22:00 2.50 263.0 77.9
07/16/2018 21:00 2.51 266.0 80.2
07/16/2018 20:00 2.51 266.0 82.9
07/16/2018 19:00 2.51 266.0 85.8
07/16/2018 18:00 2.52 269.0 86.4
07/16/2018 17:00 2.53 272.0 87.1
07/16/2018 16:00 2.53 272.0 87.1
07/16/2018 15:00 2.54 275.0 85.4
07/16/2018 14:00 2.55 279.0 85.5
07/16/2018 13:00 2.56 282.0 85.0
07/16/2018 12:00 2.58 288.0 82.6
07/16/2018 11:00 2.58 288.0 82.1
07/16/2018 10:00 2.58 288.0 77.8
07/16/2018 09:00 2.57 285.0 72.7
07/16/2018 08:00 2.57 285.0 67.7
07/16/2018 07:00 2.57 285.0 68.8
07/16/2018 06:00 2.57 285.0 69.0
07/16/2018 05:00 2.57 285.0 69.4
07/16/2018 04:00 2.57 285.0 70.0
07/16/2018 03:00 2.56 282.0 69.9
07/16/2018 02:00 2.56 282.0 69.5
07/16/2018 01:00 2.57 285.0 70.1
07/16/2018 00:00 2.57 285.0 69.5
07/15/2018 23:00 2.57 285.0 72.2
07/15/2018 22:00 2.56 282.0 75.0
07/15/2018 21:00 2.56 282.0 77.7
07/15/2018 20:00 2.56 282.0 80.2
07/15/2018 19:00 2.53 272.0 80.1
07/15/2018 18:00 2.55 279.0 79.5
07/15/2018 17:00 2.56 282.0 82.5
07/15/2018 16:00 2.57 285.0 81.5
07/15/2018 15:00 2.57 285.0 82.4
07/15/2018 14:00 2.57 285.0 81.2
07/15/2018 13:00 2.57 285.0 79.4
07/15/2018 12:00 2.57 285.0 77.4
07/15/2018 11:00 2.56 282.0 74.1
07/15/2018 10:00 2.56 282.0 68.8
07/15/2018 09:00 2.56 282.0 67.0
07/15/2018 08:00 2.56 282.0 65.1
07/15/2018 07:00 2.56 282.0 63.8
07/15/2018 06:00 2.56 282.0 63.9
07/15/2018 05:00 2.55 279.0 64.3
07/15/2018 04:00 2.55 279.0 64.4
07/15/2018 03:00 2.55 279.0 65.1
07/15/2018 02:00 2.55 279.0 65.7
07/15/2018 01:00 2.56 282.0 66.9
07/15/2018 00:00 2.55 279.0 67.5
07/14/2018 23:00 2.55 279.0 68.0
07/14/2018 22:00 2.55 279.0 68.4
07/14/2018 21:00 2.55 279.0 70.1
07/14/2018 20:00 2.57 285.0 71.8
07/14/2018 19:00 2.58 288.0 72.3
07/14/2018 18:00 2.58 288.0 73.7
07/14/2018 17:00 2.58 288.0 74.3
07/14/2018 16:00 2.58 288.0 72.8
07/14/2018 15:00 2.58 288.0 72.0
07/14/2018 14:00 2.58 288.0 70.9
07/14/2018 13:00 2.57 285.0 69.3
07/14/2018 12:00 2.57 285.0 67.1
07/14/2018 11:00 2.58 288.0 67.1
07/14/2018 10:00 2.58 288.0 64.7
07/14/2018 09:00 2.58 288.0 63.4
07/14/2018 08:00 2.58 288.0 61.4
07/14/2018 07:00 2.58 288.0 60.6
07/14/2018 06:00 2.58 288.0 60.2
07/14/2018 05:00 2.58 288.0 58.6
07/14/2018 04:00 2.58 288.0 57.9
07/14/2018 03:00 2.57 285.0 57.7
07/14/2018 02:00 2.58 288.0 59.2
07/14/2018 01:00 2.58 288.0 61.4
07/14/2018 00:00 2.58 288.0 64.3
07/13/2018 23:00 2.58 288.0 65.9
07/13/2018 22:00 2.57 285.0 67.9
07/13/2018 21:00 2.58 288.0 70.7
07/13/2018 20:00 2.58 288.0 73.3
07/13/2018 19:00 2.59 291.0 76.6
07/13/2018 18:00 2.58 288.0 78.6
07/13/2018 17:00 2.58 288.0 81.9
07/13/2018 16:00 2.58 288.0 81.0
07/13/2018 15:00 2.59 291.0 80.2
07/13/2018 14:00 2.59 291.0 78.8
07/13/2018 13:00 2.58 288.0 77.8
07/13/2018 12:00 2.59 291.0 75.4
07/13/2018 11:00 2.59 291.0 73.5
07/13/2018 10:00 2.58 288.0 68.7
07/13/2018 09:00 2.58 288.0 67.6
07/13/2018 08:00 2.59 291.0 60.2
07/13/2018 07:00 2.58 288.0 53.1
07/13/2018 06:00 2.59 291.0 53.5
07/13/2018 05:00 2.59 291.0 55.3
07/13/2018 04:00 2.58 288.0 56.4
07/13/2018 03:00 2.58 288.0 58.6
07/13/2018 02:00 2.59 291.0 60.4
07/13/2018 01:00 2.59 291.0 62.8
07/13/2018 00:00 2.58 288.0 67.0
07/12/2018 23:00 2.58 288.0 70.4
07/12/2018 22:00 2.58 288.0 72.2
07/12/2018 21:00 2.58 288.0 74.5
07/12/2018 20:00 2.58 288.0 77.5
07/12/2018 19:00 2.58 288.0 78.1
07/12/2018 18:00 2.58 288.0 78.4
07/12/2018 17:00 2.59 291.0 79.7
07/12/2018 16:00 2.59 291.0 79.2
07/12/2018 15:00 2.59 291.0 76.8
07/12/2018 14:00 2.59 291.0 76.7
07/12/2018 13:00 2.59 291.0 78.7
07/12/2018 12:00 2.59 291.0 75.3
07/12/2018 11:00 2.59 291.0 73.7
07/12/2018 10:00 2.59 291.0 69.7
07/12/2018 09:00 2.58 288.0 64.4
07/12/2018 08:00 2.59 291.0 57.9
07/12/2018 07:00 2.58 288.0 50.6
07/12/2018 06:00 2.59 291.0 51.0
07/12/2018 05:00 2.59 291.0 51.3
07/12/2018 04:00 2.59 291.0 53.2
07/12/2018 03:00 2.59 291.0 54.3
07/12/2018 02:00 2.59 291.0 56.9
07/12/2018 01:00 2.59 291.0 58.8
07/12/2018 00:00 2.58 288.0 65.7
07/11/2018 23:00 2.58 288.0 65.2
07/11/2018 22:00 2.58 288.0 67.0
07/11/2018 21:00 2.58 288.0 74.6
07/11/2018 20:00 2.58 288.0 78.1
07/11/2018 19:00 2.59 291.0 79.7
07/11/2018 18:00 2.59 291.0 80.8
07/11/2018 17:00 2.60 295.0 80.9
07/11/2018 16:00 2.59 291.0 76.3
07/11/2018 15:00 2.59 291.0 75.7
07/11/2018 14:00 2.59 291.0 72.0
07/11/2018 13:00 2.59 291.0 71.7
07/11/2018 12:00 2.60 295.0 72.4
07/11/2018 11:00 2.60 295.0 72.5
07/11/2018 10:00 2.60 295.0 71.1
07/11/2018 09:00 2.60 295.0 70.8
07/11/2018 08:00 2.59 291.0 65.5
07/11/2018 07:00 2.60 295.0 63.9
07/11/2018 06:00 2.60 295.0 63.6
07/11/2018 05:00 2.60 295.0 64.1
07/11/2018 04:00 2.60 295.0 64.4
07/11/2018 03:00 2.60 295.0 65.0
07/11/2018 02:00 2.60 295.0 65.3
07/11/2018 01:00 2.60 295.0 65.9
07/11/2018 00:00 2.60 295.0 66.8
07/10/2018 23:00 2.60 295.0 67.8
07/10/2018 22:00 2.60 295.0 68.4
07/10/2018 21:00 2.60 295.0 70.2
07/10/2018 20:00 2.60 295.0 70.7
07/10/2018 19:00 2.59 291.0 70.8
07/10/2018 18:00 2.59 291.0 86.7
07/10/2018 17:00 2.59 291.0 87.9
07/10/2018 16:00 2.59 291.0 88.5
07/10/2018 15:00 2.59 291.0 88.6
07/10/2018 14:00 2.60 295.0 89.0
07/10/2018 13:00 2.60 295.0 87.9
07/10/2018 12:00 2.59 291.0 84.9
07/10/2018 11:00 2.60 295.0 81.1
07/10/2018 10:00 2.60 295.0 75.6
07/10/2018 09:00 2.60 295.0 71.9
07/10/2018 08:00 2.60 295.0 63.8
07/10/2018 07:00 2.60 295.0 58.2
07/10/2018 06:00 2.61 298.0 57.8
07/10/2018 05:00 2.60 295.0 58.8
07/10/2018 04:00 2.61 298.0 60.0
07/10/2018 03:00 2.60 295.0 60.8
07/10/2018 02:00 2.60 295.0 62.6
07/10/2018 01:00 2.61 298.0 64.8
07/10/2018 00:00 2.60 295.0 66.8
07/09/2018 23:00 2.61 298.0 69.9
07/09/2018 22:00 2.60 295.0 74.7
07/09/2018 21:00 2.60 295.0 80.5
07/09/2018 20:00 2.60 295.0 86.1
07/09/2018 19:00 2.60 295.0 89.0
07/09/2018 18:00 2.59 291.0 89.6
07/09/2018 17:00 2.60 295.0 88.9
07/09/2018 16:00 2.60 295.0 88.9
07/09/2018 15:00 2.60 295.0 88.7
07/09/2018 14:00 2.60 295.0 85.3
07/09/2018 13:00 2.60 295.0 86.3
07/09/2018 12:00 2.60 295.0 84.3
07/09/2018 11:00 2.60 295.0 81.1
07/09/2018 10:00 2.60 295.0 76.6
07/09/2018 09:00 2.61 298.0 71.4
07/09/2018 08:00 2.60 295.0 62.0
07/09/2018 07:00 2.61 298.0 55.5
07/09/2018 06:00 2.60 295.0 55.7
07/09/2018 05:00 2.61 298.0 56.9
07/09/2018 04:00 2.61 298.0 57.5
07/09/2018 03:00 2.61 298.0 59.3
07/09/2018 02:00 2.61 298.0 60.0
07/09/2018 01:00 2.60 295.0 62.8
07/09/2018 00:00 2.61 298.0 65.1
07/08/2018 23:00 2.61 298.0 67.5
07/08/2018 22:00 2.61 298.0 71.6
07/08/2018 21:00 2.61 298.0 77.0
07/08/2018 20:00 2.61 298.0 81.6
07/08/2018 19:00 2.60 295.0 82.3
07/08/2018 18:00 2.60 295.0 82.7
07/08/2018 17:00 2.61 298.0 82.2
07/08/2018 16:00 2.61 298.0 82.0
07/08/2018 15:00 2.61 298.0 81.2
07/08/2018 14:00 2.61 298.0 81.1
07/08/2018 13:00 2.61 298.0 79.9
07/08/2018 12:00 2.61 298.0 78.5
07/08/2018 11:00 2.61 298.0 74.8
07/08/2018 10:00 2.61 298.0 68.9